星链-4322 (STARLINK-4322 )

导读 | 星芒AI

STARLINK-4322 是 SpaceX Starlink 项目中的一颗低轨通信卫星,属于该星座的众多卫星之一,旨在为全球提供高速互联网服务。该卫星采用先进的推进和通信技术,具备自动避障功能,以确保在轨安全。它运行在约 550 公里的高度,通过 KU/Ka 频段与地面基站通信,支持宽带数据传输。Starlink 卫星群致力于改善偏远地区的网络接入,推动全球数字包容。

基本信息
目录编号:
53078
目录名称:
STARLINK-4322
国际标识:
2022-077AM
轨道中心:
EARTH
卫星名称:
星链-4322
卫星全名:
星链-4322 (STARLINK-4322 )
卫星状态:
在轨 (已飞行1259 天)
发射日期:
2022-07-11 UTC
国别 :
美国 (US)
星等 :
--
轨道信息
数据来源 国际轨道数据 AOE轨道数据
星历时间 2025-12-21T01:52:41+0800
12小时前
查看轨道信息
2025-12-15T07:00:00+0800
6天前
查看轨道信息
半长轴 6941.136km 6941.117km
偏心率 0.0001388 0.0001837
轨道倾角 97.602° 97.602°
近地点辐角 157.827° 140.310°
升交点赤经 172.920° 167.256°
平近点角 202.301° 285.488°
近地点 562.035km 561.706km
远地点 563.963km 564.258km
周期 95.919分钟 95.919分钟
每日圈数 15.012636 15.012699
详细信息
固有亮度:
5
最大亮度:
2.5
卫星平台:
Starlink v1.5
覆盖范围:
全球
运营商:
太空探索技术公司
运营商所在国:
美国
制造商(研发单位):
太空探索技术公司
制造商所在国:
美国
使用方式:
暂无
卫星简介
星链(Starlink)计划是由太空探索技术公司(SpaceX)提出的一个巨型低轨卫星互联网星座项目,计划在2019年至2024年间在太空搭建由约1.2万颗卫星组成的“星链”网络,其中1584颗将部署在地球上空550千米处的近地轨道,并从2020年开始工作。该卫星仍在工作。
2D轨道图
3D轨道图
轨道高度分析图
轨道倾角分析图
轨道综合分析图
查看轨道综合分析图